{"data":{"norad_id":49401,"epoch":"2026-05-25T02:30:48.760992Z","epoch_age_seconds":56090,"freshness":"FRESH","line1":"1 49401U 21102G   26145.10473103  .00004623  00000+0  21583-3 0  9997","line2":"2 49401  97.3311 182.8346 0013803 318.2748  41.7434 15.20228359250078","mean_motion":15.20228359,"eccentricity":0.0013803,"inclination_deg":97.3311,"raan_deg":182.8346,"arg_perigee_deg":318.2748,"mean_anomaly_deg":41.7434,"bstar":0.00021583,"rev_number":25007,"period_min":94.722611341577,"perigee_km":495.65021563767,"apogee_km":514.65222109329,"semimajor_km":6883.2882183655,"source":"CELESTRAK","updated_at":"2026-05-25T13:37:57.195662Z"}}